Content
SEND FEEDBACK

Daily
Averages
Monthly
Summary
United States of America

JAMESTOWN, NEW YORK


Home > North America > United States > New York
Elevation: 1725 feet     Latitude: 42 09N     Longitude: 079 15W

WEATHER
 
SELECT A DAY
Number of Records: 353,576;   Date Range: 1/1/95 - 11/22/14
 
SHARE

PRINT THIS DATA

[ ← Previous Day ]
WEATHER ALMANAC - FEBRUARY 1, 2013
[ Next Day → ]
[ °C ]   °F
Weather ElementAverageHighLow
Temperature13.6 °F17.6 °F (1:35 pm)6.8 °F (11:15 pm)
Dewpoint8.4 °F12.2 °F (12:35 am)1.4 °F (10:35 pm)
Humidity80.2 %86 % (12:35 am)68 % (4:15 am)
Barometer29.95 in30.14 in (9:55 pm)29.69 in (1:15 am)
Wind Speed13.7 mph20.7 mph (12:35 pm)
Wind Gust27.6 mph (12:35 pm)
Weather ElementAverage
Visibility2.5 mi
Wind DirectionWSW (258.8 °)

Weather ElementTotal
Precipitation---
Heating Degree Days52.8 (Base 65)
Averaged from 64 records on February 1, 2013
WEATHER CONDITIONS BREAKOUT
WIND DIRECTION BREAKOUT
WEATHER BY HOUR - FEBRUARY 1, 2013
[ °C ]   °F
Local TimeTemperatureDewpointHumidityBarometerVisibilityWind DirectionWind SpeedGust SpeedPrecipitationEventsConditions
12:35 AM15.8 °F12.2 °F86 %29.70 in1.0 miWSW (250°)11.5 mphOvercast
1:15 AM15.8 °F12.2 °F86 %29.69 in1.0 miWSW (250°)12.7 mphOvercast
1:35 AM15.8 °F12.2 °F86 %29.69 in1.8 miWest (260°)9.2 mphOvercast
1:55 AM15.8 °F10.4 °F79 %29.70 in2.0 miWest (260°)9.2 mphOvercast
2:15 AM15.8 °F10.4 °F79 %29.70 in1.2 miWest (280°)11.5 mphOvercast
2:35 AM15.8 °F10.4 °F79 %29.71 in2.0 miWest (280°)9.2 mphOvercast
3:15 AM15.8 °F10.4 °F79 %29.72 in1.5 miWest (280°)8.1 mphOvercast
3:35 AM15.8 °F10.4 °F79 %29.72 in4.0 miWest (270°)10.4 mph16.1 mphOvercast
3:55 AM14.0 °F8.6 °F79 %29.73 in8.0 miWest (270°)9.2 mph16.1 mphMostly Cloudy
4:15 AM15.8 °F6.8 °F68 %29.73 in7.0 miWest (270°)11.5 mphOvercast
4:35 AM15.8 °F6.8 °F68 %29.74 in4.0 miWNW (290°)11.5 mphOvercast
4:55 AM14.0 °F8.6 °F79 %29.75 in0.8 miWest (270°)12.7 mphOvercast
5:15 AM14.0 °F10.4 °F86 %29.75 in0.8 miWest (270°)13.8 mphOvercast
5:35 AM14.0 °F8.6 °F79 %29.77 in1.8 miWest (270°)8.1 mphOvercast
5:55 AM14.0 °F10.4 °F86 %29.78 in2.0 miWest (270°)11.5 mphOvercast
6:15 AM14.0 °F10.4 °F86 %29.79 in1.5 miWest (280°)10.4 mph18.4 mphOvercast
6:35 AM14.0 °F10.4 °F86 %29.80 in0.8 miWest (260°)9.2 mphOvercast
6:55 AM14.0 °F10.4 °F86 %29.82 in0.8 miWest (270°)11.5 mph20.7 mphOvercast
7:15 AM14.0 °F10.4 °F86 %29.83 in1.0 miWest (270°)6.9 mphOvercast
7:35 AM14.0 °F10.4 °F86 %29.84 in0.5 miWest (280°)13.8 mph18.4 mphOvercast
8:15 AM14.0 °F10.4 °F86 %29.87 in1.0 miWest (280°)10.4 mph16.1 mphOvercast
8:35 AM14.0 °F10.4 °F86 %29.88 in0.8 miWest (260°)15.0 mph19.6 mphOvercast
9:15 AM14.0 °F10.4 °F86 %29.90 in0.5 miWest (270°)13.8 mph21.9 mphOvercast
9:35 AM14.0 °F10.4 °F86 %29.91 in0.2 miWest (270°)16.1 mph21.9 mphOvercast
9:55 AM14.0 °F10.4 °F86 %29.92 in0.5 miWest (280°)12.7 mph19.6 mphOvercast
10:15 AM14.0 °F10.4 °F86 %29.93 in0.5 miWest (270°)18.4 mph23.0 mphOvercast
10:35 AM15.8 °F10.4 °F79 %29.94 in0.5 miWest (270°)15.0 mph24.2 mphOvercast
11:15 AM15.8 °F10.4 °F79 %29.96 in0.5 miWest (280°)15.0 mph20.7 mphOvercast
11:35 AM15.8 °F10.4 °F79 %29.97 in0.8 miWNW (290°)13.8 mph20.7 mphOvercast
11:55 AM15.8 °F10.4 °F79 %29.97 in0.8 miWNW (290°)16.1 mph21.9 mphOvercast
12:15 PM15.8 °F10.4 °F79 %29.97 in1.2 miWNW (290°)15.0 mph23.0 mphOvercast
12:35 PM15.8 °F10.4 °F79 %29.98 in0.5 miWest (280°)20.7 mph27.6 mphOvercast
12:55 PM15.8 °F10.4 °F79 %29.98 in0.5 miWNW (290°)16.1 mph27.6 mphOvercast
1:15 PM15.8 °F10.4 °F79 %29.98 in1.0 miWNW (290°)16.1 mph21.9 mphOvercast
1:35 PM17.6 °F8.6 °F68 %29.99 in1.5 miWNW (290°)18.4 mph25.3 mphOvercast
2:15 PM15.8 °F10.4 °F79 %30.00 in1.0 miWest (270°)16.1 mph21.9 mphOvercast
2:35 PM15.8 °F10.4 °F79 %30.01 in0.5 miWest (270°)19.6 mph25.3 mphOvercast
2:55 PM15.8 °F8.6 °F73 %30.02 in1.5 miWest (260°)18.4 mph27.6 mphOvercast
3:15 PM15.8 °F8.6 °F73 %30.02 in0.8 miWest (260°)13.8 mph21.9 mphOvercast
3:35 PM15.8 °F8.6 °F73 %30.04 in1.0 miWest (260°)13.8 mph26.5 mphOvercast
3:55 PM14.0 °F10.4 °F86 %30.04 in1.0 miWest (260°)15.0 mphOvercast
4:15 PM14.0 °F8.6 °F79 %30.05 in1.8 miWSW (250°)12.7 mphOvercast
4:35 PM14.0 °F8.6 °F79 %30.05 in1.5 miWSW (250°)12.7 mphOvercast
5:15 PM14.0 °F8.6 °F79 %30.07 in1.5 miWSW (250°)16.1 mphOvercast
5:35 PM12.2 °F8.6 °F85 %30.08 in0.8 miWSW (240°)18.4 mph24.2 mphOvercast
5:55 PM12.2 °F8.6 °F85 %30.08 in0.5 miWSW (240°)16.1 mphOvercast
6:15 PM12.2 °F8.6 °F85 %30.09 in1.2 miWSW (240°)12.7 mph24.2 mphOvercast
6:35 PM12.2 °F6.8 °F79 %30.09 in1.5 miWSW (240°)16.1 mph23.0 mphOvercast
6:55 PM12.2 °F6.8 °F79 %30.10 in1.8 miWSW (240°)13.8 mph23.0 mphOvercast
7:15 PM12.2 °F6.8 °F79 %30.11 in2.0 miWSW (240°)17.3 mph21.9 mphOvercast
7:35 PM12.2 °F6.8 °F79 %30.11 in2.5 miSW (230°)16.1 mphOvercast
7:55 PM10.4 °F6.8 °F85 %30.12 in2.0 miSW (230°)12.7 mphOvercast
8:15 PM10.4 °F6.8 °F85 %30.12 in1.8 miSW (230°)11.5 mphOvercast
8:35 PM10.4 °F6.8 °F85 %30.12 in2.0 miSW (230°)13.8 mph19.6 mphOvercast
8:55 PM10.4 °F5.0 °F79 %30.13 in5.0 miSW (230°)16.1 mph20.7 mphOvercast
9:15 PM10.4 °F3.2 °F73 %30.13 in10.0 miSW (230°)11.5 mphMostly Cloudy
9:35 PM10.4 °F3.2 °F73 %30.13 in4.0 miSW (230°)17.3 mph23.0 mphOvercast
9:55 PM10.4 °F3.2 °F73 %30.14 in4.0 miSW (230°)17.3 mphOvercast
10:15 PM8.6 °F3.2 °F79 %30.14 in5.0 miSW (230°)18.4 mphOvercast
10:35 PM8.6 °F1.4 °F73 %30.14 in10.0 miSW (230°)15.0 mph20.7 mphMostly Cloudy
10:55 PM8.6 °F1.4 °F73 %30.14 in10.0 miSW (220°)11.5 mph19.6 mphMostly Cloudy
11:15 PM6.8 °F1.4 °F79 %30.14 in10.0 miSW (220°)12.7 mph17.3 mphClear
11:35 PM6.8 °F1.4 °F79 %30.14 in10.0 miSW (220°)16.1 mphMostly Cloudy
11:55 PM8.6 °F3.2 °F79 %30.14 in10.0 miSW (230°)12.7 mphOvercast
Hourly data recorded from KJHW, located miles away from Jamestown, New York







STORIES FROM OUR PARTNERS